FENGYUN 1C DEB

Satellite information

Favourite Embed

Satellite Type and Status

DEBRISIN ORBIT

Key statistics

Satellite FENGYUN 1C DEB at a glance.

Uptime

9495

Days in orbit

Revolutions

≈ 14.1

Per day

Orbit

SSO

Sun Synchronous Orbit

Inclination

99.1

Latest

Satellite identification and parameters

Extended collection of information and parameters for FENGYUN 1C DEB.

Object identification

Identified? True

Debris? True

Object name: FENGYUN 1C DEB

International designator: 1999-025VW

Object number (NORAD): 30213

Object ID (CCSDS): 30213

Country: PEOPLES REPUBLIC OF CHINA (PRC)

Current information (Y/N): Y

RCS size: SMALL

Orbital parameters

Period: 102.105 minutes

Inclination: 99.129 deg

SMA: 7236.433 km

Apoapsis: 912.142 km

Periapsis: 804.453 km

RAAN: 200.9463 deg

Eccentricy: 0.0074408

Argument of periapsis: 138.1341 deg

Mean anomaly: 42.5209 deg

Mean motion: 14.10314516 rev/day

Mean motion (dot): 0.00002564 rev/day2

B* drag term: 0.0014327 1/REarth

Two-line elements (TLE)

Creation date: May 8, 2025, 3:01 a.m.

Reference frame: TEME

Reference center: EARTH

Epoch: May 7, 2025, 11:20 p.m. UTC

TLE line 0: 0 FENGYUN 1C DEB

TLE line 1: 1 30213U 99025VW 25127.97260912 .00002564 00000-0 14327-2 0 9993

TLE line 2: 2 30213 99.1290 200.9463 0074408 138.1341 42.5209 14.10314516934306

Live tracking on map

Real-time ground track for satellite FENGYUN 1C DEB.

In-orbit conjunctions

A list of the most updated potential collisions computed for object FENGYUN 1C DEB.

Target Orbit TCA Probability of collision Miss distance Type
THOR BURNER 2A R/B SSO 2025-01-19 03:38:37 0.0001708571 263.0 (m) ROCKET BODY
CZ-6A DEB LEO 2024-12-11 03:16:20 0.001001453 66.0 (m) DEBRIS

Associated space launch

Chinese polar orbiting meteorological satellite

FENGYUN 1C DEB was lifted into orbit during the mission ‘Long March 4B | Feng Yun 1C’, on board a Long March 4B space rocket.

The launch took place on May 10, 1999, 1:33 a.m. from Launch Complex 7.

For more information about the launch, click the button.

Launch to space Long March 4B | Feng Yun 1C
Long March 4B | Feng Yun 1C

Agency: N/A

Status: Launch Successful

Launch date: May 10, 1999, 1:33 a.m. UTC

Rocket: Long March 4B

Launch pad: Launch Complex 7

Location: Taiyuan Satellite Launch Center, People's Republic of China

...

Latest news about this satellite

There are no fresh news available about this satellite. Check back as we update our databases every day.


Newsletter sign-up

Weekly statistics, charts and insights to help you stay on top of the space industry.